Location: Newark
(49.8969°N, 3.3422°E)
Time: 18:59:41
(UTC+00:00)

Tiros 1 - Pass Details

Date: 17 May 2021
Orbit: 630 x 664 km, 48.4° (Epoch: 12 June)

Event Time Altitude Azimuth Distance (km) Brightness Sun altitude
Exits shadow 01:03:50 22° 253° (WSW) 1,432 8.6 -18.5°
Maximum altitude 01:06:53 72° 173° (S) 694 7.1 -18.3°
Drops below altitude 10° 01:11:39 10° 89° (E) 2,064 10.0 -18.0°
Sets 01:13:59 0° 88° (E) 2,970 10.9 -17.9°
